Location: ???????
(55.3754°N, 39.3545°E)
Time: 18:15:01
(UTC+00:00)

Cosmos 1331 Rocket - Pass Details

Date: 14 April 2026
Orbit: 746 x 772 km, 74.0° (Epoch: 16 May)

Event Time Altitude Azimuth Distance (km) Brightness Sun altitude
Exits shadow 23:42:01 33° 240° (WSW) 1,284 4.7 -18.7°
Maximum altitude 23:44:13 57° 304° (WNW) 908 4.3 -18.6°
Drops below altitude 10° 23:49:26 10° 23° (NNE) 2,323 7.7 -18.1°
Sets 23:51:51 0° 28° (NNE) 3,250 8.8 -17.9°
